Change the Weather History Date:

Saturday, March 29, 2014

  Actual Average Record
Temperature  
Mean Temperature 46 °F -  
Max Temperature 57 °F 59 °F 82 °F (2012)
Min Temperature 34 °F 40 °F 28 °F (2009)
Degree Days  
Heating Degree Days 20    
Moisture  
Dew Point 29 °F    
Average Humidity 58    
Maximum Humidity 82    
Minimum Humidity 32    
Precipitation  
Precipitation 0.00 in - - ()
Sea Level Pressure  
Sea Level Pressure 30.24 in    
Wind  
Wind Speed 7 mph (NNE)    
Max Wind Speed 12 mph    
Max Gust Speed -    
Visibility 10 miles    
Events      
Averages and records for this station are not official NWS values.
T = Trace of Precipitation, MM = Missing Value Source: NWS Daily Summary

Daily Weather History Graph

Daily Weather History Graph

Search for Another Location

Airport or City:

Trip Planner

Search our weather history database for the weather conditions in past years. The results will help you decide how hot, cold, wet, or windy it might be!

Date:

Astronomy

Mar. 29, 2014 Rise Set
Actual Time 7:07 AM CDT 7:39 PM CDT
Civil Twilight 6:40 AM CDT 8:06 PM CDT
Nautical Twilight 6:09 AM CDT 8:37 PM CDT
Astronomical Twilight 5:36 AM CDT 9:10 PM CDT
Moon 6:16 AM CDT (3/29) 6:45 PM CDT (3/29)
Length of Visible Light 13h 25m
Length of Day
12h 31m
Waning Crescent, 2% of the Moon is Illuminated
Mar 29
Waning Crescent
Mar 30
New
Apr 7
First Quarter
Apr 15
Full
Apr 22
Last Quarter

Hourly Weather History & Observations

Time (CDT) Temp. Windchill Dew Point Humidity Pressure Visibility Wind Dir Wind Speed Gust Speed Precip Events Conditions
12:54 AM 39.9 °F 32.9 °F 33.1 °F 77% 30.19 in 10.0 mi NNE 11.5 mph - N/A   Partly Cloudy
1:54 AM 37.9 °F 34.4 °F 32.0 °F 79% 30.20 in 10.0 mi NNE 4.6 mph - N/A   Partly Cloudy
2:36 AM 39.9 °F 37.8 °F 34.0 °F 79% 30.20 in 10.0 mi North 3.5 mph - N/A   Mostly Cloudy
2:54 AM 39.9 °F 35.8 °F 34.0 °F 79% 30.21 in 10.0 mi North 5.8 mph - N/A   Overcast
3:30 AM 39.0 °F 33.4 °F 32.0 °F 76% 30.21 in 10.0 mi North 8.1 mph - N/A   Scattered Clouds
3:54 AM 37.9 °F 32.1 °F 30.9 °F 76% 30.22 in 10.0 mi NNE 8.1 mph - N/A   Clear
4:54 AM 36.0 °F 32.1 °F 30.9 °F 82% 30.23 in 9.0 mi NNW 4.6 mph - N/A   Clear
5:54 AM 35.1 °F 30.1 °F 30.0 °F 82% 30.25 in 8.0 mi NNW 5.8 mph - N/A   Clear
6:54 AM 34.0 °F 28.8 °F 28.9 °F 82% 30.27 in 8.0 mi North 5.8 mph - N/A   Clear
7:54 AM 34.0 °F 26.6 °F 28.9 °F 82% 30.29 in 7.0 mi North 9.2 mph - N/A   Clear
8:54 AM 37.0 °F 31.0 °F 28.9 °F 73% 30.30 in 9.0 mi North 8.1 mph - N/A   Clear
9:54 AM 39.9 °F 35.1 °F 28.0 °F 63% 30.32 in 10.0 mi North 6.9 mph - N/A   Clear
10:54 AM 43.0 °F 38.8 °F 28.0 °F 56% 30.33 in 10.0 mi NNE 6.9 mph - N/A   Clear
11:54 AM 46.0 °F 41.9 °F 27.0 °F 47% 30.33 in 10.0 mi NNW 8.1 mph - N/A   Clear
12:54 PM 48.9 °F - 28.0 °F 44% 30.30 in 10.0 mi Calm Calm - N/A   Clear
1:54 PM 52.0 °F - 28.9 °F 41% 30.29 in 10.0 mi NNW 5.8 mph - N/A   Clear
2:54 PM 54.0 °F - 28.9 °F 38% 30.25 in 10.0 mi North 6.9 mph - N/A   Clear
3:54 PM 55.9 °F - 28.0 °F 34% 30.22 in 10.0 mi Variable 3.5 mph - N/A   Clear
4:54 PM 55.9 °F - 27.0 °F 33% 30.22 in 10.0 mi Calm Calm - N/A   Clear
5:54 PM 57.0 °F - 27.0 °F 32% 30.20 in 10.0 mi Calm Calm - N/A   Clear
6:54 PM 55.0 °F - 27.0 °F 34% 30.19 in 10.0 mi East 4.6 mph - N/A   Clear
7:54 PM 53.1 °F - 27.0 °F 37% 30.19 in 10.0 mi SE 5.8 mph - N/A   Clear
8:54 PM 52.0 °F - 28.0 °F 40% 30.21 in 10.0 mi SE 5.8 mph - N/A   Clear
9:54 PM 50.0 °F - 28.0 °F 43% 30.21 in 10.0 mi South 5.8 mph - N/A   Clear
10:54 PM 48.0 °F - 28.0 °F 46% 30.21 in 10.0 mi South 6.9 mph - N/A   Clear
11:54 PM 46.9 °F - 28.0 °F 48% 30.21 in 10.0 mi South 8.1 mph - N/A   Clear